[[{"header":{"parameterUnit":"m.s-1","parameterCategory":1,"la1":30.2992,"la2":30.254,"lo1":-89.0895,"lo2":-89.0443,"dy":0.0025,"dx":0.0025,"nx":19,"ny":19,"refTime":"2026-05-02T09:00:00:Z","depth":0,"parameterNumber":2,"parameterNumberName":"U-component_of_WINDS"},"data":[0,0,0,-0.3975,-0.3976,-0.4038,-0.4038,-0.4123,-0.4124,0,0,0,0,0,0,0,0,0,0,0,-0.396,-0.396,-0.3975,-0.3976,-0.4038,-0.4038,-0.4123,-0.4124,0,0,0,0,0,0,0,0,0,0,0,-0.396,-0.396,-0.3961,-0.3977,-0.4038,-0.4038,-0.4122,-0.4074,0,0,0,0,0,0,0,0,0,0,-0.4013,-0.4002,-0.396,-0.3961,-0.3977,-0.4038,-0.4038,-0.4072,-0.4077,-0.4097,0,-0.4115,0,-0.4121,-0.4129,-0.413,0,0,0,-0.3975,-0.3998,-0.4011,-0.3961,-0.3978,-0.4038,-0.401,-0.4075,-0.4081,-0.4104,-0.4116,-0.4119,-0.4122,-0.413,-0.4131,-0.4251,-0.4251,0,0,-0.3971,-0.3973,-0.4007,-0.4015,-0.4006,-0.4008,-0.4012,-0.4078,-0.4092,-0.4117,-0.4121,-0.4123,-0.4131,-0.4131,-0.425,-0.4251,0,0,0,-0.3963,-0.3971,-0.3982,-0.4012,-0.4023,-0.401,-0.4014,-0.4089,-0.4093,-0.4122,-0.4124,-0.4131,-0.4132,-0.4249,-0.425,-0.4285,0,0,0,-0.3961,-0.3966,-0.3981,-0.3983,-0.4022,-0.4057,-0.4023,-0.4088,-0.4095,-0.4124,-0.4131,-0.4133,-0.4249,-0.425,-0.4282,-0.4301,0,0,0,-0.3955,-0.3965,-0.3975,-0.3983,-0.4009,-0.4055,-0.4063,-0.4089,-0.4097,-0.413,-0.4133,-0.4248,-0.425,-0.428,-0.4298,-0.4334,0,0,0,-0.395,-0.4005,-0.3975,-0.4038,-0.4009,-0.4075,-0.4062,-0.4112,-0.4145,-0.4132,-0.4249,-0.425,-0.4279,-0.4295,-0.4331,-0.4365,-0.4379,0,0,-0.4021,-0.4014,-0.4051,-0.4026,-0.4098,-0.4066,-0.4144,-0.4172,-0.4174,-0.4225,-0.4228,-0.4283,-0.4297,-0.4333,-0.4454,-0.4465,0,0,0,-0.4074,-0.4101,-0.4119,-0.4149,-0.4171,-0.4192,-0.4207,-0.4217,-0.426,-0.42,-0.4305,-0.4313,-0.4334,-0.4351,-0.436,-0.4378,-0.4257,-0.4257,-0.4257,-0.418,-0.4177,-0.4238,-0.4243,-0.4272,-0.4286,-0.431,-0.4326,-0.4317,-0.4341,-0.4357,-0.4431,-0.445,-0.4457,-0.4475,-0.4374,-0.4374,-0.4374,-0.4374,-0.4285,-0.4322,-0.4306,-0.4359,-0.4356,-0.4401,-0.4416,-0.4407,-0.4449,-0.4419,-0.4437,-0.4406,-0.4469,-0.4485,-0.4376,-0.4376,-0.4376,-0.4375,-0.4375,-0.4355,-0.4372,-0.4382,-0.4424,-0.4457,-0.446,-0.4499,-0.4495,-0.4492,-0.451,-0.4526,-0.4526,-0.4526,-0.4518,-0.4518,-0.4518,-0.4518,-0.4519,-0.4519,-0.4424,-0.4434,-0.4468,-0.4494,-0.4512,-0.4535,-0.4549,-0.4566,-0.4585,-0.4579,-0.4579,-0.4567,-0.4475,-0.4452,-0.4523,-0.4522,-0.4522,-0.4521,-0.4521,-0.4535,-0.4509,-0.4561,-0.4579,-0.4608,-0.4641,-0.4634,-0.467,-0.4684,-0.4703,-0.4686,-0.4618,-0.4611,-0.4604,-0.4585,-0.4686,-0.4686,-0.4686,-0.4686,-0.4595,-0.459,-0.4642,-0.4671,-0.4698,-0.4696,-0.4756,-0.4766,-0.4772,-0.4781,-0.4765,-0.4739,-0.4732,-0.4729,-0.4719,-0.4702,-0.483,-0.483,-0.4831,-0.4663,-0.466,-0.4712,-0.4717,-0.4739,-0.4758,-0.4813,-0.4847,-0.4849,-0.4836,-0.4787,-0.4781,-0.474,-0.4726,-0.4715,-0.4699,-0.4668,0,0]},{"header":{"parameterUnit":"m.s-1","parameterCategory":1,"la1":30.2992,"la2":30.254,"lo1":-89.0895,"lo2":-89.0443,"dy":0.0025,"dx":0.0025,"nx":19,"ny":19,"refTime":"2026-05-02T09:00:00:Z","depth":0,"parameterNumber":3,"parameterNumberName":"V-component_of_WINDS"},"data":[0,0,0,-6.8162,-6.8167,-6.8389,-6.8389,-6.8685,-6.8687,0,0,0,0,0,0,0,0,0,0,0,-6.8107,-6.8109,-6.8162,-6.8168,-6.8389,-6.839,-6.8684,-6.8688,0,0,0,0,0,0,0,0,0,0,0,-6.8106,-6.8109,-6.8112,-6.8168,-6.8389,-6.839,-6.8684,-6.8511,0,0,0,0,0,0,0,0,0,0,-6.8294,-6.8254,-6.8108,-6.8112,-6.817,-6.8388,-6.839,-6.8503,-6.8522,-6.8591,0,-6.8657,0,-6.8677,-6.8708,-6.8709,0,0,0,-6.8159,-6.8239,-6.8289,-6.8112,-6.8172,-6.8388,-6.8286,-6.8514,-6.8535,-6.8616,-6.8661,-6.8672,-6.8682,-6.871,-6.8712,-6.9141,-6.9144,0,0,-6.8147,-6.8152,-6.8274,-6.8304,-6.8274,-6.8279,-6.8293,-6.8526,-6.8575,-6.8662,-6.8678,-6.8687,-6.8712,-6.8715,-6.9139,-6.9142,0,0,0,-6.8117,-6.8144,-6.8188,-6.8292,-6.8331,-6.8286,-6.8302,-6.8564,-6.8578,-6.8681,-6.869,-6.8714,-6.8718,-6.9137,-6.914,-6.9266,0,0,0,-6.811,-6.8127,-6.8183,-6.8189,-6.8327,-6.8451,-6.8335,-6.8562,-6.8588,-6.8689,-6.8714,-6.8721,-6.9134,-6.9138,-6.9257,-6.9324,0,0,0,-6.8089,-6.8124,-6.816,-6.8188,-6.8284,-6.8447,-6.8475,-6.8568,-6.8595,-6.871,-6.8722,-6.9132,-6.9138,-6.9248,-6.9311,-6.9439,0,0,0,-6.8068,-6.8268,-6.8162,-6.8388,-6.8282,-6.8524,-6.8473,-6.8652,-6.8766,-6.8716,-6.9134,-6.914,-6.9246,-6.9302,-6.943,-6.9549,-6.9599,0,0,-6.8323,-6.8298,-6.8431,-6.8343,-6.8605,-6.849,-6.8769,-6.8867,-6.8871,-6.905,-6.9061,-6.926,-6.931,-6.9437,-6.9874,-6.9914,0,0,0,-6.8513,-6.8609,-6.8677,-6.8787,-6.8868,-6.8942,-6.8997,-6.9032,-6.9184,-6.8966,-6.934,-6.937,-6.9444,-6.95,-6.9534,-6.9597,-6.9166,-6.9165,-6.9165,-6.8882,-6.8879,-6.9097,-6.9121,-6.9227,-6.9282,-6.9367,-6.9424,-6.9388,-6.9477,-6.953,-6.9796,-6.9863,-6.9888,-6.9954,-6.9592,-6.9592,-6.9593,-6.9593,-6.9255,-6.939,-6.9338,-6.9532,-6.9526,-6.9688,-6.9747,-6.9716,-6.9864,-6.9756,-6.9821,-6.9704,-6.9932,-6.9989,-6.9602,-6.9601,-6.96,-6.9599,-6.9598,-6.9497,-6.9561,-6.9602,-6.976,-6.9881,-6.9896,-7.0041,-7.003,-7.0019,-7.0084,-7.0139,-7.0137,-7.0133,-7.0111,-7.0112,-7.0113,-7.0114,-7.0114,-7.0115,-6.9732,-6.9774,-6.99,-7.0002,-7.007,-7.0158,-7.0213,-7.0279,-7.0349,-7.0329,-7.033,-7.0285,-6.9955,-6.9872,-7.0129,-7.0127,-7.0125,-7.0123,-7.0123,-7.0113,-7.0025,-7.0219,-7.0287,-7.0405,-7.0526,-7.0509,-7.0644,-7.0696,-7.0768,-7.0708,-7.0466,-7.044,-7.0413,-7.0345,-7.0709,-7.0709,-7.0709,-7.0709,-7.0318,-7.0303,-7.0498,-7.0609,-7.0715,-7.0719,-7.0935,-7.0979,-7.101,-7.1041,-7.0986,-7.0894,-7.0868,-7.0857,-7.0821,-7.0757,-7.1218,-7.1218,-7.1219,-7.0552,-7.0547,-7.0735,-7.0766,-7.0857,-7.0934,-7.1137,-7.1263,-7.1279,-7.1239,-7.1066,-7.1044,-7.0896,-7.0848,-7.0805,-7.0748,-7.0631,0,0]}]]